Regional Weather Roundup
Issued by NWS Northern Indiana

Home | Current Version | Previous Version | Graphics & Text | Print | Product List | Glossary On
Versions: 1 2 3 4 5 6 7 8 9 10 11 12 13 14 15 16 17 18 19 20 21 22 23 24 25 26 27 28 29 30 31 32 33 34 35 36 37 38 39 40 41 42 43 44 45 46 47 48 49 50
648
ASUS43 KIWX 301810
RWRIWX

KIWX WEATHER ROUNDUP
NATIONAL WEATHER SERVICE NORTHERN INDIANA
200 PM EDT SAT APR 30 2016

NOTE: "FAIR" INDICATES FEW OR NO CLOUDS BELOW 12,000 FEET WITH NO
SIGNIFICANT WEATHER AND/OR OBSTRUCTIONS TO VISIBILITY.

* THESE STATIONS ARE NOT UNDER NWS QUALITY CONTROL. THEY ALSO MAY NOT
  REPORT WEATHER SUCH AS PRECIPITATION OR FOG.

INZ001>027-301900-
NORTHERN INDIANA

CITY           SKY/WX    TMP DP  RH WIND       PRES   REMARKS
GARY*          LGT RAIN  48  48 100 E12       29.98F
VALPARAISO     LGT RAIN  46  43  89 E15       29.98F FOG
6HR MIN TEMP:  45; 6HR MAX TEMP:  47; 6HR PCP:  0.10;

MICHIGAN CITY* LGT RAIN  45  45 100 E7        30.00F
LAPORTE*       DRIZZLE   48  47  99 E16       30.00F
6HR MIN TEMP:  47; 6HR MAX TEMP:  49; 6HR PCP:  0.03;

KNOX*          CLOUDY    45  43  93 E15       29.99S
SOUTH BEND     LGT RAIN  47  42  83 E15G21    30.02F
6HR MIN TEMP:  45; 6HR MAX TEMP:  48; 6HR PCP:  0.09;

ELKHART*       LGT RAIN  48  46  93 E14       30.03F
GOSHEN         LGT RAIN  48  42  80 E14       30.02F
6HR MIN TEMP:  45; 6HR MAX TEMP:  49; 6HR PCP:  0.07;

MONTICELLO*    LGT RAIN  48  45  88 E9        29.95F
6HR MIN TEMP:  47; 6HR MAX TEMP:  48; 6HR PCP:  0.25;

LOGANSPORT*    LGT RAIN  46  46 100 E13       29.98S
ROCHESTER*     LGT RAIN  48  46  93 E15       29.99F
WARSAW*        LGT RAIN  46  43  87 E15G23    30.00F
ANGOLA*        PTSUNNY   48  43  81 E9        30.05F
FORT WAYNE     LGT RAIN  48  44  86 E15       30.03F FOG
6HR MIN TEMP:  43; 6HR MAX TEMP:  48; 6HR PCP:  0.08;

HUNTINGTON*    LGT RAIN N/A N/A N/A E10       30.01F
                                      6HR PCP:  0.11;

MARION*        LGT RAIN  48  46  94 E12       29.99F
6HR MIN TEMP:  -1; 6HR MAX TEMP:  82; 6HR PCP:  0.17;


$$
INZ028>050-301900-
CENTRAL INDIANA

CITY           SKY/WX    TMP DP  RH WIND       PRES   REMARKS
LAFAYETTE      RAIN      50  49  96 E18       29.89F FOG
6HR MIN TEMP:  48; 6HR MAX TEMP:  50; 6HR PCP:  0.43;

KOKOMO*        CLOUDY    48  45  87 E15       29.97F
6HR MIN TEMP:  46; 6HR MAX TEMP:  48; 6HR PCP:  0.27;

MUNCIE*        LGT RAIN  51  48  89 E14       29.98F FOG
6HR MIN TEMP:  49; 6HR MAX TEMP:  51; 6HR PCP:  0.27;

INDIANAPOLIS   RAIN      54  51  90 E20       29.84F FOG
6HR MIN TEMP:  50; 6HR MAX TEMP:  54; 6HR PCP:  0.57;


$$
MIZ043>046-050>051-056>058-064>065-071>073-077>080-301900-
SOUTHWEST LOWER MICHIGAN

CITY           SKY/WX    TMP DP  RH WIND       PRES   REMARKS
BATTLE CREEK   LGT RAIN  51  35  54 SE8       30.08F
6HR MIN TEMP:  46; 6HR MAX TEMP:  53; 6HR PCP: TRACE;

BENTON HARBOR  LGT RAIN  49  43  80 E8        30.03F
6HR MIN TEMP:  47; 6HR MAX TEMP:  51; 6HR PCP:  0.05;

COLDWATER*     LGT RAIN  49  42  74 E8        30.07F
6HR MIN TEMP:  46; 6HR MAX TEMP:  51;

HILLSDALE*     DRIZZLE   50  38  62 E10       30.08F
6HR MIN TEMP:  44; 6HR MAX TEMP:  51;

HOLLAND        CLOUDY    53  36  52 E12       30.07F
6HR MIN TEMP:  43; 6HR MAX TEMP:  53;

GRAND RAPIDS   CLOUDY    54  37  52 E14       30.09F
6HR MIN TEMP:  42; 6HR MAX TEMP:  54;

KALAMAZOO      LGT RAIN  50  39  66 E6        30.07F
6HR MIN TEMP:  47; 6HR MAX TEMP:  53; 6HR PCP:  0.01;

STURGIS*       LGT RAIN  47  44  86 E8        30.04F
6HR MIN TEMP:  44; 6HR MAX TEMP:  50; 6HR PCP:  0.03;

THREE RIVERS*  LGT RAIN  49  42  78 E9        30.05F
6HR MIN TEMP:  46; 6HR MAX TEMP:  50;


$$
OHZ001>008-015>018-024>025-301900-
NORTHWEST OHIO

CITY           SKY/WX    TMP DP  RH WIND       PRES   REMARKS
WAUSEON*       DRIZZLE   52  39  62 E13       30.08F
DEFIANCE       LGT RAIN  51  42  71 E10       30.07F
6HR MIN TEMP:  45; 6HR MAX TEMP:  52; 6HR PCP:  0.02;

FINDLAY        LGT RAIN  52  44  74 E6        30.07S
6HR MIN TEMP:  43; 6HR MAX TEMP:  53; 6HR PCP:  0.02;

TOLEDO EXPRESS LGT RAIN  50  40  68 E9        30.10S
6HR MIN TEMP:  43; 6HR MAX TEMP:  54; 6HR PCP: TRACE;

TOLEDO METCALF CLOUDY    49  38  65 E6        30.12S
6HR MIN TEMP:  44; 6HR MAX TEMP:  53;

LIMA           LGT RAIN  48  46  93 E12       30.05F FOG
6HR MIN TEMP:  43; 6HR MAX TEMP:  49; 6HR PCP:  0.07;


$$
AND FOR LAKE MICHIGAN COASTAL AND OPEN LAKE BUOY OBSERVATIONS

STATION/POSITION TEMP    WIND        PRES    VSBY  WAVE
                 AIR SEA DIR/SP/G                  HT/PER
                 (F)     (DEG/KT/KT) (MB)    (MI)  (FT/S)
CALUMET HARBOR    45      60/ 17/ 19 1015.6F
MICHIGAN CITY     45      60/ 12/ 16   N/A
BURNS HARBOR      46      90/ 12/ 18 1016.6F
SAINT JOSEPH      49      10/  3/  7 1016.3F
SOUTH LAKE BUOY   42 40   70/ 12/ 14 1017.3F         1/ 3
4 MI NW BRIDGMAN  47 47                N/A           1

$$
&&




USA.gov is the U.S. government's official web portal to all federal, state and local government web resources and services.